When you browse on this site, cookies collect data to enhance your experience and personalize the content and advertising you see.
Visit our Privacy Policy to learn more. By continuing to use the site, you agree to this use of cookies and data.
  • In Portugal
  • List of Countries
  • For 7 days
  • Water Temperature
  • Weather Map
  • Weather Widgets
  • user-avatar
    Login

    Hourly Weather Coimbra

    Today, 7 April, Tuesday

    Time Temperature Precipitation Wind Pressure Humidity
    00:00 +15°C° 0.2 mm 2 mps 757 mmHg 95%
    01:00 +15°C° 0.2 mm 2 mps 757 mmHg 95%
    02:00 +15°C° 0.2 mm 2 mps 757 mmHg 95%
    03:00 +15°C° 0.2 mm 2 mps 757 mmHg 95%
    04:00 +15°C° 0.2 mm 2 mps 757 mmHg 95%
    05:00 +15°C° 0 mm 2 mps 757 mmHg 96%
    06:00 +16°C° 0.1 mm 2 mps 757 mmHg 91%
    07:00 +18°C° 0.1 mm 2 mps 757 mmHg 87%
    08:00 +19°C° 0.1 mm 3 mps 758 mmHg 82%
    09:00 +20°C° 0.2 mm 3 mps 758 mmHg 76%
    10:00 +21°C° 0.2 mm 3 mps 758 mmHg 70%
    11:00 +22°C° 0 mm 3 mps 758 mmHg 63%
    12:00 +22°C° 0.1 mm 3 mps 758 mmHg 64%
    13:00 +22°C° 0.1 mm 3 mps 758 mmHg 64%
    14:00 +24°C° 0.1 mm 3 mps 757 mmHg 64%
    15:00 +21°C° 0.1 mm 3 mps 758 mmHg 70%
    16:00 +20°C° 0.1 mm 2 mps 758 mmHg 77%
    17:00 +19°C° 0.1 mm 2 mps 758 mmHg 83%
    18:00 +18°C° 0 mm 1 mps 758 mmHg 87%
    19:00 +16°C° 0 mm 1 mps 759 mmHg 92%
    20:00 +14°C° 0 mm 0 mps 759 mmHg 96%
    21:00 +14°C° 0 mm 0 mps 759 mmHg 96%
    22:00 +13°C° 0 mm 0 mps 759 mmHg 96%
    23:00 +13°C° 0 mm 0 mps 759 mmHg 96%

    Tomorrow, 8 April, Wednesday

    Time Temperature Precipitation Wind Pressure Humidity
    00:00 +13°C° 0 mm 0 mps 759 mmHg 95%
    01:00 +13°C° 0 mm 0 mps 759 mmHg 95%
    02:00 +14°C° 0 mm 1 mps 759 mmHg 95%
    03:00 +14°C° 0 mm 1 mps 758 mmHg 95%
    04:00 +14°C° 0 mm 1 mps 758 mmHg 95%
    05:00 +14°C° 0 mm 1 mps 758 mmHg 94%
    06:00 +15°C° 0 mm 1 mps 758 mmHg 90%
    07:00 +18°C° 0 mm 1 mps 759 mmHg 86%
    08:00 +19°C° 0 mm 1 mps 759 mmHg 81%
    09:00 +19°C° 0.3 mm 1 mps 759 mmHg 84%
    10:00 +18°C° 0.3 mm 1 mps 759 mmHg 87%
    11:00 +18°C° 0.3 mm 1 mps 759 mmHg 90%
    12:00 +18°C° 0.1 mm 1 mps 759 mmHg 89%
    13:00 +17°C° 0.1 mm 0 mps 758 mmHg 88%
    14:00 +17°C° 0.1 mm 0 mps 758 mmHg 88%
    15:00 +17°C° 0 mm 0 mps 758 mmHg 87%
    16:00 +17°C° 0 mm 0 mps 758 mmHg 87%
    17:00 +17°C° 0 mm 0 mps 757 mmHg 87%
    18:00 +16°C° 0 mm 0 mps 758 mmHg 89%
    19:00 +15°C° 0 mm 0 mps 758 mmHg 91%
    20:00 +14°C° 0 mm 0 mps 758 mmHg 92%
    21:00 +14°C° 0 mm 0 mps 758 mmHg 92%
    22:00 +13°C° 0 mm 0 mps 758 mmHg 92%
    23:00 +14°C° 0 mm 1 mps 758 mmHg 92%

    Day after tomorrow, 9 April, Thursday

    Time Temperature Precipitation Wind Pressure Humidity
    00:00 +14°C° 0 mm 1 mps 757 mmHg 91%
    01:00 +14°C° 0 mm 1 mps 757 mmHg 91%
    02:00 +14°C° 0 mm 1 mps 756 mmHg 91%
    03:00 +14°C° 0 mm 1 mps 756 mmHg 90%
    04:00 +14°C° 0 mm 1 mps 756 mmHg 89%
    05:00 +14°C° 0 mm 1 mps 756 mmHg 88%
    06:00 +15°C° 0 mm 1 mps 756 mmHg 86%
    07:00 +16°C° 0 mm 1 mps 756 mmHg 84%
    08:00 +18°C° 0 mm 1 mps 756 mmHg 81%
    09:00 +18°C° 0.1 mm 1 mps 756 mmHg 83%
    10:00 +18°C° 0.1 mm 1 mps 757 mmHg 84%
    11:00 +18°C° 0.1 mm 1 mps 757 mmHg 85%
    12:00 +18°C° 0.6 mm 1 mps 756 mmHg 87%
    13:00 +16°C° 0.6 mm 1 mps 756 mmHg 89%
    14:00 +16°C° 0.6 mm 2 mps 756 mmHg 90%
    15:00 +16°C° 0.1 mm 2 mps 756 mmHg 91%
    16:00 +16°C° 0.1 mm 1 mps 756 mmHg 92%
    17:00 +16°C° 0.1 mm 1 mps 756 mmHg 93%
    18:00 +16°C° 0.2 mm 1 mps 756 mmHg 94%
    19:00 +16°C° 0.2 mm 1 mps 756 mmHg 94%
    20:00 +15°C° 0.2 mm 1 mps 756 mmHg 95%
    21:00 +15°C° 0.1 mm 1 mps 756 mmHg 96%
    22:00 +15°C° 0.1 mm 1 mps 756 mmHg 97%
    23:00 +15°C° 0.1 mm 1 mps 756 mmHg 97%

    10 April, Friday

    Time Temperature Precipitation Wind Pressure Humidity
    00:00 +15°C° 0 mm 1 mps 756 mmHg 98%
    01:00 +15°C° 0 mm 1 mps 756 mmHg 98%
    02:00 +15°C° 0 mm 1 mps 756 mmHg 98%
    03:00 +15°C° 0 mm 1 mps 756 mmHg 98%
    04:00 +15°C° 0 mm 1 mps 756 mmHg 98%
    05:00 +15°C° 0 mm 1 mps 756 mmHg 98%
    06:00 +15°C° 0 mm 1 mps 757 mmHg 96%
    07:00 +16°C° 0 mm 1 mps 757 mmHg 93%
    08:00 +16°C° 0 mm 1 mps 757 mmHg 91%
    09:00 +18°C° 0.1 mm 1 mps 757 mmHg 85%
    10:00 +19°C° 0.1 mm 1 mps 757 mmHg 80%
    11:00 +19°C° 0.1 mm 2 mps 757 mmHg 75%
    12:00 +19°C° 0 mm 2 mps 757 mmHg 72%
    13:00 +19°C° 0 mm 2 mps 757 mmHg 70%
    14:00 +20°C° 0 mm 2 mps 756 mmHg 68%
    15:00 +19°C° 0 mm 2 mps 756 mmHg 70%
    16:00 +19°C° 0 mm 2 mps 756 mmHg 73%
    17:00 +18°C° 0 mm 2 mps 756 mmHg 76%
    18:00 +16°C° 0 mm 1 mps 756 mmHg 82%
    19:00 +15°C° 0 mm 1 mps 757 mmHg 88%
    20:00 +13°C° 0 mm 1 mps 757 mmHg 95%
    21:00 +13°C° 0 mm 1 mps 757 mmHg 95%
    22:00 +13°C° 0 mm 1 mps 757 mmHg 95%
    23:00 +11°C° 0 mm 0 mps 757 mmHg 95%

    11 April, Saturday

    Time Temperature Precipitation Wind Pressure Humidity
    00:00 +11°C° 0 mm 0 mps 757 mmHg 95%
    01:00 +11°C° 0 mm 0 mps 757 mmHg 95%
    02:00 +11°C° 0 mm 0 mps 757 mmHg 95%
    03:00 +12°C° 0 mm 1 mps 757 mmHg 95%
    04:00 +12°C° 0 mm 1 mps 757 mmHg 95%
    05:00 +12°C° 0 mm 1 mps 757 mmHg 95%
    06:00 +14°C° 0 mm 1 mps 757 mmHg 88%
    07:00 +15°C° 0 mm 0 mps 757 mmHg 81%
    08:00 +18°C° 0 mm 0 mps 757 mmHg 74%
    09:00 +21°C° 0 mm 1 mps 757 mmHg 67%
    10:00 +23°C° 0 mm 1 mps 757 mmHg 61%
    11:00 +25°C° 0 mm 1 mps 757 mmHg 55%
    12:00 +24°C° 0.1 mm 2 mps 757 mmHg 57%
    13:00 +24°C° 0.1 mm 2 mps 756 mmHg 59%
    14:00 +22°C° 0.1 mm 3 mps 756 mmHg 61%
    15:00 +21°C° 0.1 mm 3 mps 755 mmHg 66%
    16:00 +20°C° 0.1 mm 2 mps 755 mmHg 72%
    17:00 +19°C° 0.1 mm 2 mps 755 mmHg 77%
    18:00 +17°C° 0 mm 2 mps 755 mmHg 82%
    19:00 +16°C° 0 mm 1 mps 756 mmHg 87%
    20:00 +14°C° 0 mm 0 mps 756 mmHg 92%
    21:00 +15°C° 0 mm 1 mps 756 mmHg 90%
    22:00 +15°C° 0 mm 1 mps 756 mmHg 88%
    23:00 +15°C° 0 mm 1 mps 756 mmHg 87%

    12 April, Sunday

    Time Temperature Precipitation Wind Pressure Humidity
    00:00 +15°C° 0 mm 1 mps 755 mmHg 86%
    01:00 +16°C° 0 mm 1 mps 755 mmHg 85%
    02:00 +16°C° 0 mm 1 mps 755 mmHg 84%
    03:00 +16°C° 0.1 mm 1 mps 755 mmHg 84%
    04:00 +16°C° 0.1 mm 1 mps 755 mmHg 84%
    05:00 +16°C° 0.1 mm 1 mps 755 mmHg 84%
    06:00 +18°C° 0 mm 1 mps 755 mmHg 81%
    07:00 +19°C° 0 mm 1 mps 755 mmHg 79%
    08:00 +20°C° 0 mm 1 mps 755 mmHg 76%
    09:00 +21°C° 0.4 mm 1 mps 755 mmHg 72%
    10:00 +22°C° 0.4 mm 1 mps 754 mmHg 68%
    11:00 +24°C° 0.4 mm 1 mps 754 mmHg 64%
    12:00 +23°C° 1 mm 1 mps 754 mmHg 65%
    13:00 +23°C° 1 mm 2 mps 754 mmHg 67%
    14:00 +23°C° 1 mm 2 mps 753 mmHg 68%
    15:00 +21°C° 0.5 mm 2 mps 753 mmHg 73%
    16:00 +20°C° 0.5 mm 2 mps 753 mmHg 77%
    17:00 +20°C° 0.5 mm 1 mps 752 mmHg 81%
    18:00 +19°C° 0.1 mm 1 mps 752 mmHg 83%
    19:00 +18°C° 0.1 mm 1 mps 752 mmHg 85%
    20:00 +16°C° 0.1 mm 1 mps 753 mmHg 87%
    21:00 +16°C° 0 mm 1 mps 752 mmHg 88%
    22:00 +15°C° 0 mm 1 mps 752 mmHg 90%
    23:00 +15°C° 0 mm 1 mps 752 mmHg 92%
    Show more